Simultaneous Nadir Overpasses (SNOs) Predictions

Prediction of SNOs between METOP-A and NOAA-19 Satellite Orbit:

Table of predicted SNOs for the next 14.0 days since TLE Epoch: 12/11/2016
Index Date (METOP-A) Time (METOP-A) Lat,Lon (METOP-A) SZA (METOP-A ) Date (NOAA-19) Time (NOAA-19) Lat,Lon (NOAA-19) SZA (NOAA-19 ) Distance(km) Time Diff (sec)
1 12/19/2016 00:01:48 -77.11, 3.65 79.52 12/19/2016 00:00:41 -77.09, 0.49 79.57 78.41 67
2 12/19/2016 00:52:37 76.69, 169.32 100.05 12/19/2016 00:51:31 76.69, 169.47 100.05 3.84 66
3 12/19/2016 01:43:19 -76.70, -23.35 79.95 12/19/2016 01:42:34 -76.72, -23.41 79.93 3.25 45
4 12/19/2016 02:33:59 76.68, 143.92 100.04 12/19/2016 02:33:33 76.70, 143.93 100.06 2.59 26
5 12/19/2016 03:24:41 -76.68, -48.75 79.97 12/19/2016 03:24:35 -76.69, -48.77 79.96 0.97 6
6 12/19/2016 04:15:21 76.66, 118.51 100.02 12/19/2016 04:15:34 76.67, 118.57 100.03 1.62 13
7 12/19/2016 05:06:03 -76.66, -74.16 79.99 12/19/2016 05:06:36 -76.65, -74.13 79.99 1.32 33
8 12/19/2016 05:56:43 76.64, 93.10 100.00 12/19/2016 05:57:35 76.63, 93.20 99.99 2.85 52
9 12/19/2016 06:47:25 -76.64, -99.57 80.00 12/19/2016 06:48:38 -76.66, -99.67 79.98 3.15 73




NCC Satellite Simultaneous Nadir Overpasses (SNOs) Prediction Service
